Location: ???????
(56.2167°N, 38.0500°E)
Time: 04:42:29
(UTC+00:00)

Lacrosse 4 Rocket - Pass Details

Date: 19 May 2025
Orbit: 513 x 576 km, 68.0° (Epoch: 19 June)

Event Time Altitude Azimuth Distance (km) Brightness Sun altitude
Rises 23:39:59 0° 318° (NW) 2,712 5.1 -8.6°
Reaches altitude 10° 23:42:18 10° 327° (NNW) 1,828 4.3 -8.4°
Maximum altitude 23:46:08 38° 36° (NE) 858 3.1 -8.1°
Drops below altitude 10° 23:50:03 10° 106° (ESE) 1,856 4.3 -7.8°
Sets 23:52:23 0° 114° (ESE) 2,759 5.0 -7.7°
